Location: La Pernelle
(49.6188°N, 1.2999°W)
Time: 18:10:47
(UTC+00:00)

SL-16 R/B - Pass Details

Date: 30 October 2021
Orbit: 842 x 846 km, 71.0° (Epoch: 28 November)

Event Time Altitude Azimuth Distance (km) Brightness Sun altitude
Rises 19:56:57 0° 278° (W) 3,406 6.5 -31.2°
Reaches altitude 10° 20:00:53 10° 305° (NW) 2,475 5.4 -31.8°
Maximum altitude 20:03:32 13° 333° (NNW) 2,250 4.8 -32.2°
Drops below altitude 10° 20:06:11 10° 1° (N) 2,479 4.8 -32.6°
Enters shadow 20:07:27 - 12° (NNE) 2,722 4.9 -32.8°
